Hampton, VA

9:43 AM EST on February 28, 2017 (GMT -0500)
Langley Air Force Base

Weather History for KLFI - February, 2013

Change the Weather History Date:

Saturday, February 16, 2013

  Actual Average Record
Temperature  
Mean Temperature 38 °F -  
Max Temperature 44 °F 50 °F 77 °F (1954)
Min Temperature 32 °F 35 °F 12 °F (2015)
Degree Days  
Heating Degree Days 27    
Moisture  
Dew Point 33 °F    
Average Humidity 90    
Maximum Humidity 100    
Minimum Humidity 75    
Precipitation  
Precipitation 0.26 in - - ()
Sea Level Pressure  
Sea Level Pressure 29.85 in    
Wind  
Wind Speed 15 mph (NNW)    
Max Wind Speed 22 mph    
Max Gust Speed 30 mph    
Visibility 6 miles    
Events Rain , Snow    
Averages and records for this station are not official NWS values.
T = Trace of Precipitation, MM = Missing Value Source: NWS Daily Summary

Daily Weather History Graph

Daily Weather History Graph

Search for Another Location

Airport or City:

Trip Planner

Search our weather history database for the weather conditions in past years. The results will help you decide how hot, cold, wet, or windy it might be!

Date:

Astronomy

Feb. 16, 2013 Rise Set
Actual Time 6:52 AM EST 5:46 PM EST
Civil Twilight 6:26 AM EST 6:13 PM EST
Nautical Twilight 5:55 AM EST 6:43 PM EST
Astronomical Twilight 5:25 AM EST 7:13 PM EST
Moon 10:14 AM EST (2/16) No Moon Set
Length of Visible Light 11h 47m
Length of Day
10h 54m
Waxing Crescent, 39% of the Moon is Illuminated
Feb 16
Waxing Crescent
Feb 17
First Quarter
Feb 25
Full
Mar 4
Last Quarter
Mar 11
New

Hourly Weather History & Observations

Time (EST) Temp. Windchill Dew Point Humidity Pressure Visibility Wind Dir Wind Speed Gust Speed Precip Events Conditions
12:55 AM 44.6 °F 37.8 °F 37.2 °F 75% 29.99 in 10.0 mi North 15.0 mph - N/A   Partly Cloudy
1:55 AM 42.4 °F 35.3 °F 36.5 °F 79% 29.98 in 10.0 mi North 13.8 mph - N/A   Clear
2:31 AM 41.0 °F 34.3 °F 35.6 °F 81% 29.98 in 10.0 mi North 11.5 mph - N/A   Mostly Cloudy
2:55 AM 41.2 °F 34.5 °F 35.1 °F 79% 29.98 in 10.0 mi North 11.5 mph 20.7 mph N/A   Overcast
3:10 AM 41.0 °F 34.3 °F 35.6 °F 81% 29.97 in 10.0 mi North 11.5 mph - N/A   Mostly Cloudy
3:55 AM 40.5 °F 32.8 °F 35.1 °F 81% 29.97 in 10.0 mi North 13.8 mph - N/A   Overcast
4:55 AM 39.6 °F 33.0 °F 34.5 °F 82% 29.96 in 10.0 mi North 10.4 mph - N/A   Clear
5:55 AM 38.8 °F 33.2 °F 34.9 °F 86% 29.95 in 10.0 mi North 8.1 mph - N/A   Mostly Cloudy
6:55 AM 39.7 °F 33.7 °F 34.5 °F 82% 29.94 in 10.0 mi North 9.2 mph - N/A   Overcast
7:55 AM 40.8 °F 34.1 °F 34.3 °F 78% 29.94 in 10.0 mi North 11.5 mph - N/A   Overcast
8:55 AM 41.9 °F 34.6 °F 34.3 °F 75% 29.93 in 10.0 mi North 13.8 mph - N/A   Overcast
9:25 AM 41.0 °F 33.1 °F 33.8 °F 76% 29.93 in 10.0 mi NNW 15.0 mph - N/A   Overcast
9:37 AM 41.0 °F 32.8 °F 33.8 °F 76% 29.93 in 10.0 mi NNW 16.1 mph - N/A   Overcast
9:55 AM 40.1 °F 31.0 °F 34.2 °F 79% 29.93 in 10.0 mi North 18.4 mph - N/A   Overcast
10:34 AM 41.0 °F 32.8 °F 35.6 °F 81% 29.92 in 10.0 mi North 16.1 mph - N/A   Overcast
10:41 AM 41.0 °F 33.1 °F 33.8 °F 76% 29.92 in 10.0 mi North 15.0 mph 21.9 mph N/A   Overcast
10:55 AM 40.6 °F 32.0 °F 34.7 °F 79% 29.93 in 10.0 mi North 17.3 mph - 0.00 in   Overcast
11:06 AM 41.0 °F 32.8 °F 33.8 °F 76% 29.93 in 10.0 mi North 16.1 mph - N/A   Overcast
11:11 AM 39.2 °F 29.8 °F 33.8 °F 81% 29.93 in 10.0 mi North 18.4 mph - N/A   Overcast
11:20 AM 39.2 °F 30.8 °F 33.8 °F 81% 29.92 in 10.0 mi North 15.0 mph - N/A   Overcast
11:24 AM 39.2 °F 30.8 °F 33.8 °F 81% 29.92 in 10.0 mi North 15.0 mph - N/A   Overcast
11:55 AM 39.0 °F 30.6 °F 34.0 °F 82% 29.92 in 10.0 mi North 15.0 mph - 0.00 in   Overcast
11:57 AM 39.2 °F 31.2 °F 33.8 °F 81% 29.92 in 10.0 mi NNW 13.8 mph - N/A   Overcast
12:16 PM 39.2 °F 30.8 °F 35.6 °F 87% 29.91 in 10.0 mi North 15.0 mph - N/A   Overcast
12:42 PM 37.4 °F 28.9 °F 35.6 °F 93% 29.88 in 10.0 mi North 13.8 mph - N/A   Overcast
12:55 PM 37.9 °F 29.2 °F 35.6 °F 91% 29.88 in 10.0 mi North 15.0 mph - 0.00 in   Overcast
1:19 PM 37.4 °F 29.8 °F 35.6 °F 93% 29.86 in 10.0 mi North 11.5 mph - N/A   Overcast
1:24 PM 37.4 °F 29.8 °F 35.6 °F 93% 29.87 in 10.0 mi North 11.5 mph - N/A   Overcast
1:55 PM 37.4 °F 29.8 °F 35.2 °F 92% 29.86 in 10.0 mi North 11.5 mph - 0.01 in   Overcast
2:32 PM 35.6 °F 26.6 °F 33.8 °F 93% 29.84 in 6.0 mi North 13.8 mph - N/A Rain Rain
2:46 PM 35.6 °F 26.2 °F 33.8 °F 93% 29.83 in 5.0 mi North 15.0 mph - N/A Rain Light Rain
2:55 PM 35.8 °F 26.5 °F 34.0 °F 93% 29.83 in 6.0 mi North 15.0 mph - 0.04 in Snow Light Snow
3:06 PM 35.6 °F 26.6 °F 33.8 °F 93% 29.83 in 6.0 mi North 13.8 mph - N/A Snow Light Snow
3:12 PM 35.6 °F 27.1 °F 33.8 °F 93% 29.82 in 7.0 mi North 12.7 mph - N/A Snow Light Snow
3:18 PM 35.6 °F 26.2 °F 33.8 °F 93% 29.83 in 7.0 mi North 15.0 mph - N/A   Overcast
3:55 PM 34.5 °F 25.7 °F 33.3 °F 95% 29.81 in 5.0 mi North 12.7 mph - 0.05 in Snow Light Snow
4:32 PM 35.6 °F 26.6 °F 33.8 °F 93% 29.80 in 10.0 mi North 13.8 mph - N/A   Overcast
4:55 PM 35.1 °F 27.4 °F 33.8 °F 95% 29.81 in 10.0 mi NNW 10.4 mph - 0.02 in   Overcast
5:22 PM 35.6 °F 26.6 °F 33.8 °F 93% 29.80 in 7.0 mi NNW 13.8 mph - N/A Snow Light Snow
5:37 PM 33.8 °F 24.8 °F 33.8 °F 100% 29.80 in 6.0 mi NNW 12.7 mph - N/A Snow Light Snow
5:55 PM 34.2 °F 25.7 °F 32.9 °F 95% 29.80 in 5.0 mi NNW 11.5 mph - 0.03 in Snow Light Snow
5:59 PM 33.8 °F 24.3 °F 32.0 °F 93% 29.80 in 7.0 mi NNW 13.8 mph - N/A Snow Light Snow
6:17 PM 33.8 °F 24.8 °F 33.8 °F 100% 29.81 in 8.0 mi North 12.7 mph - N/A Snow Light Snow
6:24 PM 33.8 °F 23.9 °F 33.8 °F 100% 29.80 in 9.0 mi North 15.0 mph 20.7 mph N/A   Overcast
6:42 PM 33.8 °F 23.9 °F 33.8 °F 100% 29.81 in 7.0 mi NNW 15.0 mph - N/A   Overcast
6:55 PM 34.2 °F 24.4 °F 32.7 °F 94% 29.80 in 6.0 mi NNW 15.0 mph - 0.04 in Snow Light Snow
7:04 PM 33.8 °F 23.5 °F 33.8 °F 100% 29.81 in 6.0 mi NNW 16.1 mph - N/A Snow Light Snow
7:14 PM 33.8 °F 22.2 °F 32.0 °F 93% 29.80 in 6.0 mi NNW 20.7 mph - N/A Snow Light Snow
7:21 PM 33.8 °F 23.2 °F 32.0 °F 93% 29.81 in 5.0 mi North 17.3 mph 23.0 mph N/A Snow Light Snow
7:22 PM 33.8 °F 23.5 °F 32.0 °F 93% 29.81 in 5.0 mi NNW 16.1 mph 23.0 mph N/A Snow Light Snow
7:35 PM 33.8 °F 23.2 °F 32.0 °F 93% 29.81 in 5.0 mi NNW 17.3 mph 24.2 mph N/A Snow Light Snow
7:43 PM 33.8 °F 23.2 °F 32.0 °F 93% 29.80 in 5.0 mi North 17.3 mph 24.2 mph N/A Snow Light Snow
7:55 PM 33.6 °F 23.7 °F 32.4 °F 95% 29.81 in 4.0 mi NNW 15.0 mph 24.2 mph 0.03 in Snow Light Snow
8:02 PM 33.8 °F 22.5 °F 32.0 °F 93% 29.81 in 3.0 mi NNW 19.6 mph - N/A Snow Light Snow
8:10 PM 33.8 °F 23.2 °F 32.0 °F 93% 29.80 in 2.5 mi NNW 17.3 mph 26.5 mph N/A Snow Light Snow
8:19 PM 33.8 °F 23.2 °F 32.0 °F 93% 29.81 in 2.5 mi NNW 17.3 mph 26.5 mph N/A Snow Light Snow
8:30 PM 33.8 °F 24.3 °F 32.0 °F 93% 29.81 in 2.5 mi NNW 13.8 mph - N/A Snow Light Snow
8:33 PM 33.8 °F 22.5 °F 32.0 °F 93% 29.81 in 2.0 mi NNW 19.6 mph 24.2 mph N/A Snow Light Snow
8:40 PM 33.8 °F 22.5 °F 32.0 °F 93% 29.81 in 1.8 mi NNW 19.6 mph 26.5 mph N/A Snow Light Snow
8:44 PM 33.8 °F 22.8 °F 32.0 °F 93% 29.81 in 1.8 mi NNW 18.4 mph 26.5 mph N/A Snow Light Snow
8:45 PM 33.8 °F 22.8 °F 32.0 °F 93% 29.80 in 1.5 mi NNW 18.4 mph 26.5 mph N/A Snow Light Snow
8:55 PM 33.1 °F 23.4 °F 31.8 °F 95% 29.80 in 1.8 mi NNW 13.8 mph 26.5 mph 0.02 in Snow Light Snow
9:00 PM 33.8 °F 22.8 °F 32.0 °F 93% 29.80 in 1.5 mi NNW 18.4 mph - N/A Snow Light Snow
9:03 PM 33.8 °F 21.9 °F 32.0 °F 93% 29.80 in 1.5 mi NNW 21.9 mph - N/A Snow Light Snow
9:04 PM 33.8 °F 21.9 °F 32.0 °F 93% 29.81 in 1.2 mi NNW 21.9 mph - N/A Snow Light Snow
9:11 PM 33.8 °F 22.8 °F 32.0 °F 93% 29.81 in 1.2 mi North 18.4 mph 25.3 mph N/A Snow Light Snow
9:12 PM 33.8 °F 23.5 °F 32.0 °F 93% 29.81 in 1.5 mi North 16.1 mph 25.3 mph N/A Snow Light Snow
9:15 PM 33.8 °F 22.5 °F 32.0 °F 93% 29.81 in 1.8 mi North 19.6 mph 25.3 mph N/A Snow Light Snow
9:24 PM 32.0 °F 21.2 °F 32.0 °F 100% 29.81 in 1.5 mi NNW 16.1 mph 24.2 mph N/A Snow Light Snow
9:31 PM 32.0 °F 21.6 °F 32.0 °F 100% 29.81 in 1.8 mi NNW 15.0 mph 23.0 mph N/A Snow Light Snow
9:35 PM 32.0 °F 20.8 °F 32.0 °F 100% 29.81 in 2.0 mi North 17.3 mph 29.9 mph N/A Snow Light Snow
9:38 PM 33.8 °F 23.2 °F 32.0 °F 93% 29.81 in 2.5 mi NNW 17.3 mph 29.9 mph N/A Snow Light Snow
9:41 PM 33.8 °F 23.5 °F 32.0 °F 93% 29.81 in 2.5 mi NNW 16.1 mph 29.9 mph N/A Snow Light Snow
9:48 PM 33.8 °F 22.5 °F 32.0 °F 93% 29.81 in 2.5 mi NNW 19.6 mph 25.3 mph N/A Snow Light Snow
9:55 PM 32.9 °F 21.0 °F 31.6 °F 95% 29.81 in 2.5 mi NNW 20.7 mph 26.5 mph 0.02 in Snow Light Snow
9:59 PM 32.0 °F 21.6 °F 32.0 °F 100% 29.81 in 1.5 mi NNW 15.0 mph 26.5 mph N/A Snow Light Snow
10:02 PM 32.0 °F 20.5 °F 32.0 °F 100% 29.81 in 1.5 mi NNW 18.4 mph 23.0 mph N/A Snow Light Snow
10:03 PM 32.0 °F 20.5 °F 32.0 °F 100% 29.81 in 1.8 mi NNW 18.4 mph 23.0 mph N/A Snow Light Snow
10:05 PM 32.0 °F 20.5 °F 32.0 °F 100% 29.80 in 2.0 mi NNW 18.4 mph 24.2 mph N/A Snow Light Snow
10:07 PM 33.8 °F 23.5 °F 32.0 °F 93% 29.80 in 2.5 mi NNW 16.1 mph 24.2 mph N/A Snow Light Snow
10:14 PM 33.8 °F 23.9 °F 32.0 °F 93% 29.80 in 6.0 mi NNW 15.0 mph 25.3 mph N/A Snow Light Snow
10:25 PM 33.8 °F 22.2 °F 32.0 °F 93% 29.80 in 10.0 mi NNW 20.7 mph 26.5 mph N/A Snow Light Snow
10:31 PM 33.8 °F 22.2 °F 30.2 °F 87% 29.80 in 10.0 mi NNW 20.7 mph 26.5 mph N/A   Mostly Cloudy
10:55 PM 33.4 °F 22.7 °F 30.6 °F 89% 29.79 in 10.0 mi NNW 17.3 mph 23.0 mph 0.00 in   Scattered Clouds
11:55 PM 33.6 °F 23.7 °F 29.8 °F 86% 29.80 in 10.0 mi NNW 15.0 mph 23.0 mph N/A   Overcast